Location: Caltech
(34.1382°N, 118.1253°W)
Time: 01:19:57
(UTC-07:00)

Gurwin Techsat 1B - Visible Passes

Search period start: 26 August 2016 00:00
Search period end: 05 September 2016 00:00
Orbit: 811 x 815 km, 98.6° (Epoch: 25 August)

Date Brightness Start Highest point End Pass type
(mag) Time Alt. Az. Time Alt. Az. Time Alt. Az.
26 Aug 11.2 02:07:55 10° NE 02:09:05 15° NE 02:09:05 15° NE visible
26 Aug 10.1 03:47:35 10° N 03:50:17 25° NNW 03:50:17 25° NNW visible
27 Aug 10.1 03:24:26 10° N 03:27:08 29° NNW 03:27:08 29° NNW visible
28 Aug 10.3 03:01:32 10° NNE 03:03:58 28° NNE 03:03:58 28° NNE visible
29 Aug 10.7 02:38:52 10° NNE 02:40:48 23° NNE 02:40:48 23° NNE visible
29 Aug 10.6 04:20:22 10° NNW 04:22:01 14° NW 04:22:01 14° NW visible
30 Aug 11.2 02:16:29 10° NE 02:17:39 16° NE 02:17:39 16° NE visible
30 Aug 10.4 03:56:39 10° NNW 03:58:52 20° NW 03:58:52 20° NW visible
31 Aug 10.3 03:33:22 10° N 03:35:42 25° NNW 03:35:42 25° NNW visible
01 Sep 10.4 03:10:22 10° N 03:12:33 25° N 03:12:33 25° N visible
02 Sep 10.8 02:47:36 10° NNE 02:49:23 22° NNE 02:49:23 22° NNE visible
02 Sep 10.8 04:29:51 10° NW 04:30:35 12° NW 04:30:35 12° NW visible
03 Sep 11.2 02:25:06 10° NNE 02:26:12 16° NE 02:26:12 16° NE visible
03 Sep 10.6 04:05:45 10° NNW 04:07:25 17° NW 04:07:25 17° NW visible
04 Sep 11.5 02:02:56 10° NE 02:03:03 10° NE 02:03:03 10° NE visible
04 Sep 10.5 03:42:20 10° N 03:44:16 21° NNW 03:44:16 21° NNW visible
